date,City,No. Stations,Air Quality,Index Value,Prominent Pollutant
2021-11-23,Saharsa,1.0,Very Poor,333,PM10
2021-11-24,Saharsa,1.0,Very Poor,374,PM10
2021-12-01,Saharsa,1.0,Very Poor,311,PM10
2021-12-02,Saharsa,1.0,Poor,275,PM10
2021-12-03,Saharsa,1.0,Very Poor,318,PM10
2021-12-04,Saharsa,1.0,Very Poor,326,PM10
2021-12-05,Saharsa,1.0,Very Poor,376,PM10
2021-12-06,Saharsa,1.0,Poor,266,PM10
2021-12-07,Saharsa,1.0,Very Poor,358,PM10
2021-12-08,Saharsa,1.0,Poor,290,PM10
2021-12-09,Saharsa,1.0,Very Poor,322,PM10
2021-12-10,Saharsa,1.0,Poor,268,PM10
2021-12-11,Saharsa,1.0,Poor,240,PM10
2021-12-12,Saharsa,1.0,Poor,289,PM10
2021-12-13,Saharsa,1.0,Very Poor,352,PM10
2021-12-14,Saharsa,1.0,Very Poor,385,PM10
2021-12-15,Saharsa,1.0,Poor,241,PM10
2021-12-16,Saharsa,1.0,Poor,208,PM2.5
2021-12-17,Saharsa,1.0,Poor,229,PM2.5
2021-12-21,Saharsa,1.0,Poor,283,PM2.5
2021-12-22,Saharsa,1.0,Poor,222,PM2.5
2021-12-23,Saharsa,1.0,Poor,264,PM2.5
2021-12-24,Saharsa,1.0,Poor,259,PM2.5
2021-12-25,Saharsa,1.0,Poor,258,PM2.5
2021-12-26,Saharsa,1.0,Poor,201,PM2.5
2021-12-27,Saharsa,1.0,Poor,261,PM10
2021-12-28,Saharsa,1.0,Poor,256,PM10
2021-12-29,Saharsa,1.0,Moderate,116,PM10
2021-12-31,Saharsa,1.0,Moderate,176,PM10
2022-01-01,Saharsa,1.0,Poor,222,PM10
2022-01-02,Saharsa,1.0,Poor,202,PM2.5
2022-01-03,Saharsa,1.0,Poor,267,PM2.5
2022-01-04,Saharsa,1.0,Poor,300,PM10
2022-01-05,Saharsa,1.0,Poor,296,PM10
2022-01-07,Saharsa,1.0,Very Poor,397,PM10
2022-01-08,Saharsa,1.0,Moderate,193,PM2.5
2022-01-09,Saharsa,1.0,Poor,239,PM2.5
2022-01-10,Saharsa,1.0,Poor,267,PM2.5
2022-01-11,Saharsa,1.0,Very Poor,333,PM10
2022-01-12,Saharsa,1.0,Very Poor,301,PM2.5
2022-01-13,Saharsa,1.0,Moderate,126,PM10
2022-01-14,Saharsa,1.0,Poor,212,PM2.5
2022-01-15,Saharsa,1.0,Poor,249,PM10
2022-01-16,Saharsa,1.0,Poor,259,PM2.5
2022-01-17,Saharsa,1.0,Poor,246,PM2.5
2022-01-18,Saharsa,1.0,Poor,269,PM2.5
2022-01-19,Saharsa,1.0,Poor,289,PM10
2022-01-20,Saharsa,1.0,Very Poor,313,PM10
2022-01-21,Saharsa,1.0,Very Poor,342,PM10
2022-01-22,Saharsa,1.0,Very Poor,353,PM10
2022-01-23,Saharsa,1.0,Very Poor,393,PM10
2022-01-24,Saharsa,1.0,Poor,243,PM10
2022-01-25,Saharsa,1.0,Very Poor,312,PM10
2022-01-26,Saharsa,1.0,Poor,248,PM10
2022-01-27,Saharsa,1.0,Moderate,189,PM10
2022-01-28,Saharsa,1.0,Poor,254,PM2.5
2022-01-30,Saharsa,1.0,Very Poor,365,PM10
2022-01-31,Saharsa,1.0,Very Poor,385,PM10
2022-02-01,Saharsa,1.0,Poor,266,PM2.5
2022-02-02,Saharsa,1.0,Very Poor,352,PM2.5
2022-02-03,Saharsa,1.0,Very Poor,367,PM2.5
2022-02-06,Saharsa,1.0,Moderate,133,PM2.5
2022-02-07,Saharsa,1.0,Poor,265,PM2.5
2022-02-08,Saharsa,1.0,Very Poor,316,PM2.5
2022-02-09,Saharsa,1.0,Very Poor,370,PM2.5
2022-02-10,Saharsa,1.0,Very Poor,356,PM2.5
2022-02-11,Saharsa,1.0,Poor,249,PM2.5
2022-02-12,Saharsa,1.0,Poor,235,PM2.5
2022-02-13,Saharsa,1.0,Very Poor,362,PM2.5
2022-02-14,Saharsa,1.0,Poor,292,PM2.5
2022-02-15,Saharsa,1.0,Very Poor,304,PM2.5
2022-02-16,Saharsa,1.0,Poor,290,PM2.5
2022-02-17,Saharsa,1.0,Poor,287,PM2.5
2022-02-18,Saharsa,1.0,Poor,273,PM2.5
2022-02-19,Saharsa,1.0,Poor,283,PM2.5
2022-02-20,Saharsa,1.0,Poor,269,PM2.5
2022-02-21,Saharsa,1.0,Poor,292,PM2.5
2022-02-22,Saharsa,1.0,Very Poor,329,PM2.5
2022-02-23,Saharsa,1.0,Very Poor,308,PM2.5
2022-02-24,Saharsa,1.0,Poor,296,PM2.5
2022-02-25,Saharsa,1.0,Poor,277,PM2.5
2022-02-26,Saharsa,1.0,Poor,242,PM2.5
2022-02-27,Saharsa,1.0,Very Poor,333,PM10
2022-02-28,Saharsa,1.0,Poor,233,PM2.5
2022-03-01,Saharsa,1.0,Moderate,153,PM2.5
2022-03-02,Saharsa,1.0,Poor,263,PM10
2022-03-03,Saharsa,1.0,Poor,294,PM10
2022-03-04,Saharsa,1.0,Poor,266,PM10
2022-03-05,Saharsa,1.0,Poor,212,PM10
2022-03-06,Saharsa,1.0,Poor,257,PM10
2022-03-07,Saharsa,1.0,Very Poor,325,PM10
2022-03-08,Saharsa,1.0,Poor,292,PM10
2022-03-09,Saharsa,1.0,Poor,236,PM2.5
2022-03-10,Saharsa,1.0,Poor,292,PM10
2022-03-11,Saharsa,1.0,Poor,285,PM10
2022-03-12,Saharsa,1.0,Poor,249,PM10
2022-03-13,Saharsa,1.0,Very Poor,323,PM10
2022-03-14,Saharsa,1.0,Poor,273,PM10
2022-03-15,Saharsa,1.0,Very Poor,310,PM10
2022-03-16,Saharsa,1.0,Very Poor,366,PM10
2022-03-17,Saharsa,1.0,Very Poor,385,PM10
2022-03-20,Saharsa,1.0,Severe,409,PM10
2022-03-21,Saharsa,1.0,Very Poor,394,PM10
2022-03-22,Saharsa,1.0,Very Poor,322,PM10
2022-03-23,Saharsa,1.0,Very Poor,356,PM10
2022-03-24,Saharsa,1.0,Very Poor,303,PM10
2022-03-25,Saharsa,1.0,Poor,237,PM10
2022-03-26,Saharsa,1.0,Poor,234,PM10
2022-03-27,Saharsa,1.0,Poor,224,PM10
2022-03-30,Saharsa,1.0,Moderate,192,PM10
2022-03-31,Saharsa,1.0,Moderate,164,PM10
2022-04-01,Saharsa,1.0,Poor,211,PM10
2022-04-02,Saharsa,1.0,Moderate,178,PM10
2022-04-03,Saharsa,1.0,Moderate,128,PM10
2022-04-04,Saharsa,1.0,Poor,211,PM10
2022-04-05,Saharsa,1.0,Poor,205,PM10
2022-04-06,Saharsa,1.0,Poor,222,PM10
2022-04-07,Saharsa,1.0,Moderate,164,PM10
2022-04-08,Saharsa,1.0,Moderate,152,PM10
2022-04-09,Saharsa,1.0,Moderate,164,PM10
2022-04-10,Saharsa,1.0,Moderate,127,PM10
2022-04-11,Saharsa,1.0,Moderate,104,PM10
2022-04-12,Saharsa,1.0,Moderate,122,PM10
2022-04-14,Saharsa,1.0,Poor,211,PM10
2022-04-15,Saharsa,1.0,Poor,279,PM10
2022-04-16,Saharsa,1.0,Poor,231,PM10
2022-04-17,Saharsa,1.0,Poor,246,PM10
2022-04-18,Saharsa,1.0,Poor,217,PM10
2022-04-19,Saharsa,1.0,Moderate,138,PM10
2022-04-22,Saharsa,1.0,Poor,252,PM10
2022-04-23,Saharsa,1.0,Poor,257,PM10
2022-04-24,Saharsa,1.0,Poor,267,PM10
2022-04-27,Saharsa,1.0,Very Poor,350,PM10
2022-04-28,Saharsa,1.0,Moderate,185,PM10
2022-04-29,Saharsa,1.0,Moderate,176,PM10
2022-05-05,Saharsa,1.0,Moderate,120,PM10
2022-05-06,Saharsa,1.0,Moderate,149,PM10
2022-05-15,Saharsa,1.0,Moderate,153,PM10
2022-05-16,Saharsa,1.0,Poor,209,PM10
2022-05-17,Saharsa,1.0,Moderate,147,PM10
2022-05-18,Saharsa,1.0,Moderate,145,PM10
2022-05-19,Saharsa,1.0,Poor,230,PM10
2022-05-20,Saharsa,1.0,Moderate,101,PM10
2022-05-22,Saharsa,1.0,Satisfactory,84,NO2
2022-05-23,Saharsa,1.0,Moderate,131,PM10
2022-05-24,Saharsa,1.0,Moderate,101,PM10
2022-05-25,Saharsa,1.0,Moderate,139,PM10
2022-05-26,Saharsa,1.0,Moderate,135,PM10
2022-05-27,Saharsa,1.0,Moderate,157,PM10
2022-05-28,Saharsa,1.0,Moderate,160,PM10
2022-05-31,Saharsa,1.0,Poor,236,PM10
2022-06-01,Saharsa,1.0,Very Poor,315,PM10
2022-06-02,Saharsa,1.0,Very Poor,306,PM10
2022-06-03,Saharsa,1.0,Poor,267,PM10
2022-06-04,Saharsa,1.0,Poor,214,PM10
2022-06-05,Saharsa,1.0,Moderate,172,PM10
2022-06-06,Saharsa,1.0,Moderate,135,PM10
2022-06-07,Saharsa,1.0,Moderate,113,PM10
2022-06-08,Saharsa,1.0,Moderate,188,PM10
2022-06-09,Saharsa,1.0,Moderate,178,PM10
2022-06-10,Saharsa,1.0,Moderate,163,PM10
2022-06-11,Saharsa,1.0,Moderate,170,PM10
2022-06-12,Saharsa,1.0,Moderate,179,PM10
2022-06-13,Saharsa,1.0,Moderate,113,PM10
2022-06-14,Saharsa,1.0,Moderate,166,PM10
2022-06-24,Saharsa,1.0,Poor,232,PM10
2022-06-25,Saharsa,1.0,Moderate,111,PM10
2022-06-26,Saharsa,1.0,Satisfactory,96,PM10
2022-06-27,Saharsa,1.0,Moderate,123,PM10
2022-06-29,Saharsa,1.0,Satisfactory,87,NO2
2022-06-30,Saharsa,1.0,Moderate,162,PM2.5
2022-07-03,Saharsa,1.0,Moderate,195,PM2.5
2022-07-04,Saharsa,1.0,Moderate,137,PM2.5
2022-07-05,Saharsa,1.0,Moderate,151,PM2.5
2022-07-06,Saharsa,1.0,Moderate,168,PM2.5
2022-07-07,Saharsa,1.0,Moderate,119,PM10
2022-07-08,Saharsa,1.0,Moderate,145,PM10
2022-07-09,Saharsa,1.0,Satisfactory,85,PM2.5
2022-07-11,Saharsa,1.0,Moderate,160,PM2.5
2022-07-12,Saharsa,1.0,Good,33,PM2.5
2022-07-14,Saharsa,1.0,Good,33,PM2.5
2022-07-17,Saharsa,1.0,Moderate,126,PM2.5
2022-07-18,Saharsa,1.0,Moderate,103,PM2.5
2022-07-19,Saharsa,1.0,Moderate,129,PM2.5
2022-07-20,Saharsa,1.0,Moderate,196,PM2.5
2022-07-23,Saharsa,1.0,Satisfactory,81,NO2
2022-07-24,Saharsa,1.0,Good,40,NO2
2022-07-26,Saharsa,1.0,Satisfactory,76,PM10
2022-07-27,Saharsa,1.0,Moderate,177,PM10
2022-07-28,Saharsa,1.0,Moderate,124,PM2.5
2022-07-31,Saharsa,1.0,Moderate,151,PM2.5
2022-08-01,Saharsa,1.0,Satisfactory,72,PM2.5
2022-08-02,Saharsa,1.0,Moderate,142,PM10
2022-08-03,Saharsa,1.0,Poor,230,PM2.5
2022-08-05,Saharsa,1.0,Poor,234,PM2.5
2022-08-06,Saharsa,1.0,Moderate,171,PM2.5
2022-08-07,Saharsa,1.0,Satisfactory,64,PM2.5
2022-08-08,Saharsa,1.0,Satisfactory,87,PM10
2022-08-10,Saharsa,1.0,Good,37,PM10
2022-08-12,Saharsa,1.0,Good,27,O3
2022-08-13,Saharsa,1.0,Satisfactory,79,PM2.5
2022-08-18,Saharsa,1.0,Moderate,130,PM10
2022-08-19,Saharsa,1.0,Moderate,153,PM10
2022-08-22,Saharsa,1.0,Moderate,123,PM10
2022-08-23,Saharsa,1.0,Moderate,187,PM10
2022-08-24,Saharsa,1.0,Moderate,163,PM10
2022-08-25,Saharsa,1.0,Moderate,117,PM10
2022-08-26,Saharsa,1.0,Poor,206,PM10
2022-08-27,Saharsa,1.0,Poor,272,PM10
2022-08-28,Saharsa,1.0,Moderate,114,PM10
2022-08-29,Saharsa,1.0,Moderate,130,PM10
2022-08-30,Saharsa,1.0,Poor,212,PM10
2022-08-31,Saharsa,1.0,Poor,203,PM10
2022-09-18,Saharsa,1.0,Satisfactory,65,PM10
2022-09-19,Saharsa,1.0,Moderate,175,PM2.5
2022-09-20,Saharsa,1.0,Satisfactory,73,PM2.5
2022-09-21,Saharsa,1.0,Good,39,O3
2022-09-24,Saharsa,1.0,Poor,235,PM2.5
2022-10-01,Saharsa,1.0,Moderate,189,PM2.5
2022-10-02,Saharsa,1.0,Poor,202,PM2.5
2022-10-05,Saharsa,1.0,Good,29,PM10
2022-10-06,Saharsa,1.0,Good,50,PM10
2022-10-07,Saharsa,1.0,Satisfactory,52,PM2.5
2022-10-08,Saharsa,1.0,Good,42,PM10
2022-10-09,Saharsa,1.0,Moderate,149,PM2.5
2022-10-10,Saharsa,1.0,Satisfactory,71,PM10
2022-10-11,Saharsa,1.0,Good,44,PM10
2022-10-12,Saharsa,1.0,Good,46,PM10
2022-10-13,Saharsa,1.0,Satisfactory,81,PM10
2022-10-14,Saharsa,1.0,Moderate,127,PM2.5
2022-10-15,Saharsa,1.0,Moderate,105,PM2.5
2022-10-16,Saharsa,1.0,Moderate,157,PM2.5
2022-10-17,Saharsa,1.0,Moderate,102,PM2.5
2022-10-18,Saharsa,1.0,Moderate,175,PM2.5
2022-10-19,Saharsa,1.0,Moderate,174,PM2.5
2022-10-20,Saharsa,1.0,Poor,251,PM2.5
2022-10-21,Saharsa,1.0,Poor,246,PM2.5
2022-10-24,Saharsa,1.0,Poor,236,PM2.5
2022-10-25,Saharsa,1.0,Satisfactory,76,PM10
2022-10-26,Saharsa,1.0,Poor,229,PM2.5
2022-10-27,Saharsa,1.0,Poor,270,PM2.5
2022-10-29,Saharsa,1.0,Poor,281,PM2.5
2022-10-30,Saharsa,1.0,Moderate,200,PM2.5
2022-10-31,Saharsa,1.0,Moderate,169,PM2.5
2022-11-01,Saharsa,1.0,Moderate,162,PM2.5
2022-11-06,Saharsa,1.0,Moderate,198,PM2.5
2022-11-07,Saharsa,1.0,Poor,258,PM2.5
2022-11-08,Saharsa,1.0,Poor,230,PM2.5
2022-11-09,Saharsa,1.0,Poor,269,PM2.5
2022-11-10,Saharsa,1.0,Very Poor,377,PM2.5
2022-11-11,Saharsa,1.0,Very Poor,358,PM2.5
2022-11-12,Saharsa,1.0,Very Poor,372,PM2.5
2022-11-13,Saharsa,1.0,Very Poor,322,PM2.5
2022-11-16,Saharsa,1.0,Very Poor,334,PM2.5
2022-11-17,Saharsa,1.0,Very Poor,373,PM2.5
2022-11-18,Saharsa,1.0,Very Poor,330,PM2.5
2022-11-19,Saharsa,1.0,Very Poor,315,PM2.5
2022-11-20,Saharsa,1.0,Very Poor,326,PM2.5
2022-11-21,Saharsa,1.0,Very Poor,327,PM2.5
2022-11-22,Saharsa,1.0,Very Poor,336,PM2.5
2022-11-23,Saharsa,1.0,Very Poor,341,PM2.5
2022-11-24,Saharsa,1.0,Very Poor,349,PM2.5
2022-11-25,Saharsa,1.0,Very Poor,345,PM2.5
2022-11-26,Saharsa,1.0,Very Poor,327,PM2.5
2022-11-27,Saharsa,1.0,Very Poor,384,PM2.5
2022-11-28,Saharsa,1.0,Very Poor,329,PM2.5
2022-11-30,Saharsa,1.0,Very Poor,327,PM2.5
2022-12-01,Saharsa,1.0,Very Poor,327,PM2.5
2022-12-02,Saharsa,1.0,Very Poor,317,PM2.5
2022-12-03,Saharsa,1.0,Very Poor,335,PM2.5
2022-12-04,Saharsa,1.0,Very Poor,362,PM2.5
2022-12-05,Saharsa,1.0,Very Poor,365,PM2.5
2022-12-06,Saharsa,1.0,Very Poor,326,PM2.5
2022-12-07,Saharsa,1.0,Very Poor,326,PM2.5
2022-12-09,Saharsa,1.0,Very Poor,373,PM2.5
2022-12-10,Saharsa,1.0,Very Poor,349,PM2.5
2022-12-13,Saharsa,1.0,Severe,454,PM2.5
2022-12-15,Saharsa,1.0,Very Poor,382,PM2.5
2022-12-16,Saharsa,1.0,Very Poor,350,PM2.5
2022-12-18,Saharsa,1.0,Severe,404,PM2.5
2022-12-19,Saharsa,1.0,Very Poor,381,PM2.5
2022-12-20,Saharsa,1.0,Very Poor,397,PM10
2022-12-21,Saharsa,1.0,Severe,422,PM2.5
2022-12-25,Saharsa,1.0,Very Poor,371,PM2.5
2022-12-26,Saharsa,1.0,Very Poor,378,PM2.5
2022-12-27,Saharsa,1.0,Very Poor,343,PM2.5
2022-12-28,Saharsa,1.0,Very Poor,336,PM2.5
2023-01-04,Saharsa,1.0,Poor,298,PM2.5
2023-01-07,Saharsa,1.0,Very Poor,338,PM2.5
2023-01-10,Saharsa,1.0,Very Poor,348,PM2.5
2023-01-11,Saharsa,1.0,Very Poor,313,PM2.5
2023-01-13,Saharsa,1.0,Very Poor,376,PM2.5
2023-01-14,Saharsa,1.0,Severe,422,PM2.5
2023-01-15,Saharsa,1.0,Very Poor,370,PM2.5
2023-01-16,Saharsa,1.0,Very Poor,317,PM2.5
2023-01-17,Saharsa,1.0,Very Poor,346,PM2.5
2023-01-18,Saharsa,1.0,Very Poor,379,PM2.5
2023-01-20,Saharsa,1.0,Very Poor,394,PM2.5
2023-01-21,Saharsa,1.0,Severe,415,PM2.5
2023-01-22,Saharsa,1.0,Severe,448,PM10
2023-01-23,Saharsa,1.0,Severe,425,PM2.5
2023-01-24,Saharsa,1.0,Severe,418,PM10
2023-01-25,Saharsa,1.0,Severe,427,PM10
2023-01-26,Saharsa,1.0,Severe,412,PM2.5
2023-01-27,Saharsa,1.0,Poor,280,PM2.5
2023-01-28,Saharsa,1.0,Poor,274,PM2.5
2023-01-29,Saharsa,1.0,Very Poor,312,PM2.5
2023-01-30,Saharsa,1.0,Very Poor,338,PM2.5
2023-01-31,Saharsa,1.0,Very Poor,324,PM2.5
2023-02-01,Saharsa,1.0,Moderate,156,PM10
2023-02-02,Saharsa,1.0,Poor,205,PM2.5
2023-02-03,Saharsa,1.0,Poor,293,PM2.5
2023-02-04,Saharsa,1.0,Very Poor,337,PM2.5
2023-02-05,Saharsa,1.0,Very Poor,338,PM2.5
2023-02-06,Saharsa,1.0,Very Poor,386,PM2.5
2023-02-07,Saharsa,1.0,Poor,297,PM2.5
2023-02-08,Saharsa,1.0,Very Poor,336,PM2.5
2023-02-09,Saharsa,1.0,Very Poor,329,PM2.5
2023-02-10,Saharsa,1.0,Very Poor,354,PM10
2023-02-11,Saharsa,1.0,Very Poor,344,PM10
2023-02-12,Saharsa,1.0,Very Poor,398,PM10
2023-02-13,Saharsa,1.0,Poor,248,PM10
2023-02-14,Saharsa,1.0,Very Poor,333,PM10
2023-02-15,Saharsa,1.0,Very Poor,323,PM10
2023-02-16,Saharsa,1.0,Very Poor,332,PM10
2023-02-17,Saharsa,1.0,Very Poor,323,PM2.5
2023-02-18,Saharsa,1.0,Very Poor,321,PM2.5
2023-02-19,Saharsa,1.0,Very Poor,345,PM2.5
2023-02-20,Saharsa,1.0,Very Poor,357,PM2.5
2023-02-21,Saharsa,1.0,Very Poor,370,PM2.5
2023-02-22,Saharsa,1.0,Very Poor,377,PM2.5
2023-02-23,Saharsa,1.0,Poor,221,PM2.5
2023-02-25,Saharsa,1.0,Poor,276,PM2.5
2023-02-26,Saharsa,1.0,Poor,300,PM10
2023-02-27,Saharsa,1.0,Poor,246,PM10
2023-02-28,Saharsa,1.0,Poor,284,PM2.5
2023-03-01,Saharsa,1.0,Very Poor,335,PM2.5
2023-03-02,Saharsa,1.0,Very Poor,344,PM2.5
2023-03-03,Saharsa,1.0,Poor,278,PM2.5
2023-03-04,Saharsa,1.0,Very Poor,312,PM2.5
2023-03-05,Saharsa,1.0,Poor,266,PM2.5
2023-03-06,Saharsa,1.0,Moderate,159,PM10
2023-03-07,Saharsa,1.0,Moderate,155,PM10
2023-03-08,Saharsa,1.0,Poor,238,PM2.5
2023-03-09,Saharsa,1.0,Poor,237,PM2.5
2023-03-10,Saharsa,1.0,Poor,227,PM2.5
2023-03-11,Saharsa,1.0,Poor,255,PM2.5
2023-03-12,Saharsa,1.0,Poor,262,PM2.5
2023-03-13,Saharsa,1.0,Poor,271,PM2.5
2023-03-14,Saharsa,1.0,Poor,260,PM2.5
2023-03-15,Saharsa,1.0,Very Poor,305,PM2.5
2023-03-16,Saharsa,1.0,Moderate,184,PM10
2023-03-17,Saharsa,1.0,Poor,215,PM2.5
2023-03-18,Saharsa,1.0,Poor,220,PM2.5
2023-03-19,Saharsa,1.0,Moderate,197,PM2.5
2023-03-20,Saharsa,1.0,Satisfactory,99,PM2.5
2023-03-23,Saharsa,1.0,Moderate,175,PM2.5
2023-03-24,Saharsa,1.0,Moderate,198,PM2.5
2023-03-25,Saharsa,1.0,Poor,201,PM10
2023-03-26,Saharsa,1.0,Poor,237,PM2.5
2023-03-27,Saharsa,1.0,Moderate,140,PM10
2023-03-28,Saharsa,1.0,Moderate,170,PM10
2023-03-29,Saharsa,1.0,Moderate,160,PM2.5
2023-03-30,Saharsa,1.0,Poor,227,PM2.5
2023-03-31,Saharsa,1.0,Poor,247,PM2.5
2023-04-01,Saharsa,1.0,Moderate,104,PM2.5
2023-04-02,Saharsa,1.0,Satisfactory,77,PM10
2023-04-03,Saharsa,1.0,Moderate,150,PM2.5
2023-04-04,Saharsa,1.0,Poor,216,PM2.5
2023-04-05,Saharsa,1.0,Moderate,178,PM10
2023-04-06,Saharsa,1.0,Moderate,184,PM10
2023-04-07,Saharsa,1.0,Moderate,198,PM2.5
2023-04-08,Saharsa,1.0,Poor,208,PM10
2023-04-09,Saharsa,1.0,Poor,287,PM2.5
2023-04-11,Saharsa,1.0,Poor,271,PM2.5
2023-04-12,Saharsa,1.0,Poor,222,PM2.5
2023-04-13,Saharsa,1.0,Poor,254,PM10
2023-04-14,Saharsa,1.0,Poor,229,PM2.5
2023-04-15,Saharsa,1.0,Poor,240,PM10
2023-04-16,Saharsa,1.0,Poor,211,PM2.5
2023-04-17,Saharsa,1.0,Poor,230,PM10
2023-04-19,Saharsa,1.0,Poor,220,PM2.5
2023-04-20,Saharsa,1.0,Poor,205,PM10
2023-04-21,Saharsa,1.0,Moderate,198,PM2.5
2023-04-22,Saharsa,1.0,Moderate,171,PM10
2023-04-23,Saharsa,1.0,Moderate,121,PM10
2023-04-24,Saharsa,1.0,Satisfactory,81,PM10
2023-04-25,Saharsa,1.0,Moderate,200,PM2.5
2023-04-26,Saharsa,1.0,Moderate,189,PM2.5
2023-04-28,Saharsa,1.0,Poor,236,PM2.5
2023-04-29,Saharsa,1.0,Poor,219,PM2.5
2023-04-30,Saharsa,1.0,Moderate,163,PM2.5
2023-05-01,Saharsa,1.0,Poor,215,PM2.5
2023-05-02,Saharsa,1.0,Poor,276,PM2.5
2023-05-03,Saharsa,1.0,Moderate,175,PM2.5
2023-05-04,Saharsa,1.0,Moderate,115,PM2.5
2023-05-05,Saharsa,1.0,Moderate,138,PM2.5
2023-05-06,Saharsa,1.0,Moderate,113,PM10
2023-05-07,Saharsa,1.0,Moderate,147,PM10
2023-05-08,Saharsa,1.0,Moderate,172,PM10
2023-05-09,Saharsa,1.0,Moderate,164,PM10
2023-05-10,Saharsa,1.0,Moderate,172,PM10
2023-05-11,Saharsa,1.0,Poor,213,O3
2023-05-12,Saharsa,1.0,Moderate,184,PM10
2023-05-13,Saharsa,1.0,Moderate,171,PM10
2023-05-14,Saharsa,1.0,Moderate,167,PM2.5
2023-05-16,Saharsa,1.0,Moderate,120,PM2.5
2023-05-17,Saharsa,1.0,Moderate,113,PM10
2023-05-19,Saharsa,1.0,Satisfactory,80,PM10
2023-05-20,Saharsa,1.0,Poor,209,O3
2023-05-21,Saharsa,1.0,Moderate,162,PM10
2023-05-22,Saharsa,1.0,Satisfactory,93,PM10
2023-05-23,Saharsa,1.0,Moderate,102,PM10
2023-05-24,Saharsa,1.0,Satisfactory,75,O3
2023-05-25,Saharsa,1.0,Moderate,165,PM10
2023-05-26,Saharsa,1.0,Satisfactory,89,O3
2023-05-27,Saharsa,1.0,Satisfactory,95,PM10
2023-05-28,Saharsa,1.0,Moderate,104,PM10
2023-05-29,Saharsa,1.0,Moderate,154,PM10
2023-05-30,Saharsa,1.0,Moderate,160,O3
2023-05-31,Saharsa,1.0,Moderate,140,PM10
2023-06-01,Saharsa,1.0,Moderate,151,PM10
2023-06-02,Saharsa,1.0,Moderate,185,O3
2023-06-03,Saharsa,1.0,Moderate,189,O3
2023-06-04,Saharsa,1.0,Moderate,187,PM10
2023-06-05,Saharsa,1.0,Moderate,196,PM10
2023-06-06,Saharsa,1.0,Moderate,160,PM10
2023-06-08,Saharsa,1.0,Poor,205,O3
2023-06-09,Saharsa,1.0,Poor,208,PM10
2023-06-10,Saharsa,1.0,Moderate,108,PM10
2023-06-11,Saharsa,1.0,Satisfactory,94,PM10
2023-06-12,Saharsa,1.0,Moderate,115,PM10
2023-06-13,Saharsa,1.0,Moderate,103,O3
2023-06-14,Saharsa,1.0,Moderate,168,O3
2023-06-16,Saharsa,1.0,Poor,245,PM2.5
2023-06-22,Saharsa,1.0,Satisfactory,95,PM2.5
2023-06-23,Saharsa,1.0,Satisfactory,88,PM2.5
2023-06-24,Saharsa,1.0,Satisfactory,84,PM2.5
2023-06-25,Saharsa,1.0,Satisfactory,76,PM10
2023-06-26,Saharsa,1.0,Satisfactory,77,PM10
2023-06-27,Saharsa,1.0,Satisfactory,53,CO
2023-06-29,Saharsa,1.0,Very Poor,311,O3
2023-06-30,Saharsa,1.0,Very Poor,309,O3
2023-07-01,Saharsa,1.0,Poor,280,O3
2023-07-02,Saharsa,1.0,Very Poor,312,O3
2023-07-03,Saharsa,1.0,Very Poor,312,O3
2023-07-04,Saharsa,1.0,Very Poor,316,O3
2023-07-05,Saharsa,1.0,Satisfactory,63,O3
2023-07-06,Saharsa,1.0,Satisfactory,63,PM10
2023-07-07,Saharsa,1.0,Satisfactory,52,CO
2023-07-08,Saharsa,1.0,Satisfactory,51,CO
2023-07-09,Saharsa,1.0,Good,49,CO
2023-07-11,Saharsa,1.0,Satisfactory,56,PM10
2023-07-12,Saharsa,1.0,Satisfactory,86,PM10
2023-07-13,Saharsa,1.0,Satisfactory,63,PM10
2023-07-14,Saharsa,1.0,Good,44,CO
2023-07-15,Saharsa,1.0,Satisfactory,56,CO
2023-07-16,Saharsa,1.0,Good,47,PM10
2023-07-17,Saharsa,1.0,Good,50,CO
2023-07-18,Saharsa,1.0,Good,45,PM10
2023-07-19,Saharsa,1.0,Satisfactory,79,PM10
2023-07-20,Saharsa,1.0,Satisfactory,85,PM10
2023-07-21,Saharsa,1.0,Satisfactory,81,PM10
2023-07-22,Saharsa,1.0,Good,48,CO
2023-07-23,Saharsa,1.0,Good,46,CO
2023-07-24,Saharsa,1.0,Satisfactory,60,PM10
2023-07-25,Saharsa,1.0,Satisfactory,74,PM10
2023-07-26,Saharsa,1.0,Satisfactory,76,PM10
2023-07-27,Saharsa,1.0,Satisfactory,57,PM10
2023-07-28,Saharsa,1.0,Satisfactory,60,PM10
2023-07-29,Saharsa,1.0,Good,48,PM10
2023-07-30,Saharsa,1.0,Satisfactory,54,PM10
2023-08-01,Saharsa,1.0,Satisfactory,84,PM10
2023-08-02,Saharsa,1.0,Moderate,103,O3
2023-08-03,Saharsa,1.0,Moderate,169,CO
2023-08-04,Saharsa,1.0,Moderate,109,CO
2023-08-05,Saharsa,1.0,Good,40,PM10
2023-08-08,Saharsa,1.0,Moderate,142,CO
2023-08-09,Saharsa,1.0,Satisfactory,94,CO
2023-08-11,Saharsa,1.0,Moderate,103,CO
2023-08-12,Saharsa,1.0,Moderate,101,CO
2023-08-13,Saharsa,1.0,Moderate,116,CO
2023-08-15,Saharsa,1.0,Moderate,149,CO
2023-08-16,Saharsa,1.0,Satisfactory,100,PM10
2023-08-17,Saharsa,1.0,Satisfactory,77,O3
2023-08-18,Saharsa,1.0,Satisfactory,77,O3
2023-08-19,Saharsa,1.0,Satisfactory,77,O3
2023-08-21,Saharsa,1.0,Satisfactory,99,PM10
2023-08-22,Saharsa,1.0,Satisfactory,88,O3
2023-08-23,Saharsa,1.0,Satisfactory,81,O3
2023-08-24,Saharsa,1.0,Satisfactory,74,O3
2023-08-25,Saharsa,1.0,Satisfactory,72,O3
2023-08-26,Saharsa,1.0,Satisfactory,72,O3
2023-08-27,Saharsa,1.0,Satisfactory,81,O3
2023-08-28,Saharsa,1.0,Moderate,166,PM10
2023-08-29,Saharsa,1.0,Poor,281,PM10
2023-08-30,Saharsa,1.0,Moderate,122,PM10
2023-08-31,Saharsa,1.0,Satisfactory,98,PM10
2023-09-01,Saharsa,1.0,Moderate,123,PM10
2023-09-02,Saharsa,1.0,Moderate,106,PM10
2023-09-03,Saharsa,1.0,Satisfactory,80,O3
2023-09-04,Saharsa,1.0,Moderate,108,PM10
2023-09-05,Saharsa,1.0,Moderate,105,O3
2023-09-06,Saharsa,1.0,Satisfactory,66,PM10
2023-09-07,Saharsa,1.0,Good,39,PM10
2023-09-08,Saharsa,1.0,Good,36,PM10
2023-09-09,Saharsa,1.0,Good,32,PM2.5
2023-09-10,Saharsa,1.0,Moderate,184,PM10
2023-09-11,Saharsa,1.0,Very Poor,330,PM10
2023-09-12,Saharsa,1.0,Poor,205,PM2.5
2023-09-15,Saharsa,1.0,Good,42,SO2
2023-09-16,Saharsa,1.0,Satisfactory,73,PM10
2023-09-17,Saharsa,1.0,Satisfactory,94,PM10
2023-09-18,Saharsa,1.0,Satisfactory,86,PM10
2023-09-19,Saharsa,1.0,Good,45,PM10
2023-09-20,Saharsa,1.0,Good,48,PM10
2023-09-21,Saharsa,1.0,Good,41,SO2
2023-09-22,Saharsa,1.0,Good,41,SO2
2023-09-23,Saharsa,1.0,Good,41,SO2
2023-09-26,Saharsa,1.0,Satisfactory,58,PM10
2023-09-27,Saharsa,1.0,Moderate,107,PM10
2023-09-28,Saharsa,1.0,Satisfactory,59,PM2.5
2023-09-29,Saharsa,1.0,Satisfactory,67,PM2.5
2023-09-30,Saharsa,1.0,Satisfactory,81,PM10
2023-10-06,Saharsa,1.0,Good,41,SO2
2023-10-07,Saharsa,1.0,Satisfactory,63,PM10
2023-10-08,Saharsa,1.0,Satisfactory,60,PM10
2023-10-09,Saharsa,1.0,Moderate,111,PM10
2023-10-12,Saharsa,1.0,Moderate,129,PM10
2023-10-13,Saharsa,1.0,Moderate,115,PM10
2023-10-14,Saharsa,1.0,Moderate,121,PM10
2023-10-15,Saharsa,1.0,Moderate,127,PM10
2023-10-18,Saharsa,1.0,Satisfactory,64,PM10
2023-10-19,Saharsa,1.0,Satisfactory,64,PM10
2023-10-21,Saharsa,1.0,Satisfactory,92,PM10
2023-10-22,Saharsa,1.0,Satisfactory,100,PM10
2023-10-23,Saharsa,1.0,Satisfactory,93,PM10
2023-10-24,Saharsa,1.0,Moderate,107,PM10
2023-10-26,Saharsa,1.0,Satisfactory,95,PM10
2023-10-27,Saharsa,1.0,Moderate,114,PM10
2023-10-28,Saharsa,1.0,Moderate,144,PM10
2023-10-31,Saharsa,1.0,Moderate,126,PM10
2023-11-02,Saharsa,1.0,Moderate,197,PM10
2023-11-03,Saharsa,1.0,Satisfactory,93,PM10
2023-11-04,Saharsa,1.0,Moderate,101,PM10
2023-11-05,Saharsa,1.0,Poor,260,PM10
2023-11-06,Saharsa,1.0,Very Poor,306,PM10
2023-11-07,Saharsa,1.0,Poor,231,PM2.5
2023-11-08,Saharsa,1.0,Poor,289,PM2.5
2023-11-09,Saharsa,1.0,Very Poor,314,PM2.5
2023-11-11,Saharsa,1.0,Poor,300,PM2.5
2023-11-12,Saharsa,1.0,Poor,272,PM2.5
2023-11-13,Saharsa,1.0,Very Poor,311,PM2.5
2023-11-14,Saharsa,1.0,Poor,268,PM2.5
2023-11-15,Saharsa,1.0,Poor,216,PM2.5
2023-11-16,Saharsa,1.0,Moderate,199,PM2.5
2023-11-17,Saharsa,1.0,Moderate,127,PM10
2023-11-18,Saharsa,1.0,Satisfactory,87,PM10
2023-11-19,Saharsa,1.0,Moderate,188,PM2.5
2023-11-20,Saharsa,1.0,Poor,249,PM2.5
2023-11-21,Saharsa,1.0,Poor,284,PM2.5
2023-11-22,Saharsa,1.0,Very Poor,336,PM2.5
2023-11-23,Saharsa,1.0,Very Poor,334,PM2.5
2023-11-24,Saharsa,1.0,Very Poor,348,PM2.5
2023-11-25,Saharsa,1.0,Very Poor,337,PM2.5
2023-11-28,Saharsa,1.0,Moderate,157,PM2.5
2023-11-29,Saharsa,1.0,Poor,219,PM2.5
2023-11-30,Saharsa,1.0,Poor,287,PM2.5
2023-12-01,Saharsa,1.0,Very Poor,330,PM2.5
2023-12-02,Saharsa,1.0,Very Poor,372,PM2.5
2023-12-03,Saharsa,1.0,Very Poor,335,PM2.5
2023-12-04,Saharsa,1.0,Very Poor,358,PM2.5
2023-12-05,Saharsa,1.0,Very Poor,338,PM2.5
2023-12-06,Saharsa,1.0,Very Poor,363,PM2.5
2023-12-07,Saharsa,1.0,Moderate,181,PM2.5
2023-12-08,Saharsa,1.0,Poor,224,PM2.5
2023-12-09,Saharsa,1.0,Moderate,152,PM2.5
2023-12-10,Saharsa,1.0,Poor,266,PM2.5
2023-12-11,Saharsa,1.0,Very Poor,357,PM2.5
2023-12-12,Saharsa,1.0,Very Poor,359,PM2.5
2023-12-13,Saharsa,1.0,Very Poor,352,PM2.5
2023-12-14,Saharsa,1.0,Very Poor,337,PM2.5
2023-12-15,Saharsa,1.0,Very Poor,376,PM2.5
2023-12-16,Saharsa,1.0,Very Poor,358,PM2.5
2023-12-17,Saharsa,1.0,Very Poor,360,PM2.5
2023-12-18,Saharsa,1.0,Very Poor,343,PM2.5
2023-12-19,Saharsa,1.0,Very Poor,351,PM2.5
2023-12-20,Saharsa,1.0,Very Poor,311,PM2.5
2023-12-21,Saharsa,1.0,Poor,300,PM2.5
2023-12-22,Saharsa,1.0,Very Poor,336,PM2.5